Home > Weather > Augusta > Past weeks

Flag for U.S.A. Weather for the Past 2 Weeks in Augusta, Georgia, U.S.A.

Now
54 °F

Sunny.


Feels Like: 53 °F
Forecast: 38 / 56 °F
Wind: 5 mph from North

Location: Daniel Field

Current Time: Feb 12, 2016 at 3:48:08 PM

Latest Report: Feb 12, 2016 at 2:53 PM


Visibility: 10 mi

Pressure: 30.03 "Hg

Humidity: 51%

Dew point: 36 °F

Location of AugustaLocation

Historic Weather in Augusta — Graph

°F

Augusta Temperature Yesterday

Maximum temperature yesterday: 56 °F (at 2:53 PM)
Minimum temperature yesterday: 45 °F (at 10:53 PM)
Average temperature yesterday: 51 °F

High & Low Weather Summary for the Past Weeks

 TemperatureHumidityPressure
High79 °F (Feb 2, 2:53 PM)94% (Feb 3, 3:00 PM)30.40 "Hg (Feb 3, 3:00 PM)
Low28 °F (Feb 10, 5:53 AM)24% (Jan 29, 4:53 PM)29.71 "Hg (Feb 8, 1:53 PM)
Average52 °F57%30.04 "Hg
* Reported Jan 28 2:53 PM — Feb 12 2:53 PM, Augusta, Weather by CustomWeather, © 2016

Note: Actual official high and low records may vary slightly from our data, if they occured in-between our weather recording intervals... More about our weather records

Advertising

Augusta Weather History for the Previous 24 Hours

 ConditionsComfort  
Time TempWeatherWind HumidityBarometerVisibility
2:53 PM
Fri, Feb 12
54 °FSunny.5 mph51%30.03 "Hg10 mi
1:53 PM52 °FSunny.5 mph53%30.06 "Hg10 mi
12:53 PM48 °FSunny.No wind59%30.07 "Hg10 mi
11:53 AM47 °FSunny.5 mph59%30.10 "Hg10 mi
10:53 AM46 °FSunny.7 mph61%30.13 "Hg10 mi
9:53 AM45 °FSunny.7 mph60%30.14 "Hg10 mi
8:53 AM42 °FPartly sunny.5 mph65%30.15 "Hg10 mi
7:53 AM40 °FScattered clouds.6 mph68%30.15 "Hg10 mi
6:53 AM41 °FPassing clouds.5 mph67%30.16 "Hg10 mi
5:53 AM42 °FClear.No wind68%30.14 "Hg10 mi
4:53 AM44 °FClear.3 mph63%30.14 "Hg10 mi
3:53 AM45 °FPassing clouds.No wind56%30.15 "Hg10 mi
2:53 AM46 °FOvercast.No wind51%30.16 "Hg9 mi
1:53 AM46 °FOvercast.3 mph50%30.17 "Hg10 mi
12:53 AM47 °FOvercast.3 mph44%30.19 "Hg10 mi
11:53 PM
Thu, Feb 11
46 °FOvercast.3 mph46%30.20 "Hg9 mi
10:53 PM45 °FClear.6 mph45%30.20 "Hg9 mi
9:53 PM47 °FClear.5 mph44%30.19 "Hg8 mi
8:53 PM48 °FClear.5 mph41%30.19 "Hg9 mi
7:53 PM49 °FClear.No wind41%30.19 "Hg6 mi
6:53 PM51 °FClear.No wind38%30.18 "Hg6 mi
5:53 PM54 °FSunny.3 mph31%30.16 "Hg5 mi
4:53 PM56 °FSunny.7 mph28%30.14 "Hg8 mi
3:53 PM56 °FSunny.5 mph28%30.13 "Hg10 mi
Weather by CustomWeather, © 2016

See weather overviewHow to use our weather pages